Wetterdaten: Samstag, 09.01.2016
Datum Zeit Temp. A. Feuchte A. Luftdruck Regen Wind Richtung Richtung Sonnenschein ET UV Solar Taupunkt Windchill Windben Empfang
09.01.2016 00:00 0,6 C 94 % 1005,4 hPa 0,0 l/m 0,9 km/h (0 Bft) S-SW 201 0 min 0,000 mm 0,0 UV-I 0 W/m -0,3 C 0,6 C 1,6 km/h (1 Bft) 97,46 %
09.01.2016 00:05 0,6 C 95 % 1005,6 hPa 0,0 l/m 0,8 km/h (0 Bft) S-SW 201 0 min 0,000 mm 0,0 UV-I 0 W/m -0,1 C 0,6 C 1,6 km/h (1 Bft) 97,30 %
09.01.2016 00:10 0,8 C 95 % 1005,7 hPa 0,0 l/m 0,1 km/h (0 Bft) S-SW 201 0 min 0,000 mm 0,0 UV-I 0 W/m 0,1 C 0,8 C 1,6 km/h (1 Bft) 97,37 %
09.01.2016 00:15 1,0 C 94 % 1005,6 hPa 0,0 l/m 0,0 km/h (0 Bft) S-SW 201 0 min 0,000 mm 0,0 UV-I 0 W/m 0,1 C 1,0 C 1,6 km/h (1 Bft) 97,58 %
09.01.2016 00:20 1,1 C 94 % 1005,6 hPa 0,0 l/m 0,0 km/h (0 Bft) S-SW 201 0 min 0,000 mm 0,0 UV-I 0 W/m 0,2 C 1,1 C 1,6 km/h (1 Bft) 97,37 %
09.01.2016 00:25 1,0 C 94 % 1005,5 hPa 0,0 l/m 0,6 km/h (0 Bft) S-SW 201 0 min 0,000 mm 0,0 UV-I 0 W/m 0,1 C 1,0 C 3,2 km/h (1 Bft) 97,32 %
09.01.2016 00:30 0,8 C 94 % 1005,7 hPa 0,0 l/m 2,4 km/h (1 Bft) S-SW 201 0 min 0,000 mm 0,0 UV-I 0 W/m -0,1 C 0,8 C 3,2 km/h (1 Bft) 97,46 %
09.01.2016 00:35 0,8 C 94 % 1005,7 hPa 0,0 l/m 3,8 km/h (1 Bft) S-SW 202 0 min 0,000 mm 0,0 UV-I 0 W/m -0,1 C 0,8 C 6,4 km/h (2 Bft) 99,12 %
09.01.2016 00:40 0,7 C 94 % 1005,8 hPa 0,0 l/m 5,2 km/h (1 Bft) S-SW 202 0 min 0,000 mm 0,0 UV-I 0 W/m -0,2 C 0,7 C 8,0 km/h (2 Bft) 99,21 %
09.01.2016 00:45 0,8 C 95 % 1005,7 hPa 0,0 l/m 2,6 km/h (1 Bft) S-SW 201 0 min 0,000 mm 0,0 UV-I 0 W/m 0,1 C 0,8 C 4,8 km/h (1 Bft) 98,29 %
09.01.2016 00:50 0,9 C 95 % 1005,7 hPa 0,0 l/m 1,6 km/h (1 Bft) S-SW 201 0 min 0,000 mm 0,0 UV-I 0 W/m 0,2 C 0,9 C 4,8 km/h (1 Bft) 100,00 %
09.01.2016 00:55 1,1 C 94 % 1005,6 hPa 0,0 l/m 0,7 km/h (0 Bft) S-SW 201 0 min 0,000 mm 0,0 UV-I 0 W/m 0,2 C 1,1 C 3,2 km/h (1 Bft) 100,00 %
09.01.2016 01:00 1,1 C 94 % 1005,5 hPa 0,0 l/m 2,1 km/h (1 Bft) S-SW 193 0 min 0,000 mm 0,0 UV-I 0 W/m 0,2 C 1,1 C 4,8 km/h (1 Bft) 99,17 %
09.01.2016 01:05 1,2 C 93 % 1005,4 hPa 0,0 l/m 1,3 km/h (1 Bft) S-SW 193 0 min 0,000 mm 0,0 UV-I 0 W/m 0,2 C 1,2 C 3,2 km/h (1 Bft) 99,15 %
09.01.2016 01:10 1,2 C 93 % 1005,5 hPa 0,0 l/m 2,5 km/h (1 Bft) S-SW 193 0 min 0,000 mm 0,0 UV-I 0 W/m 0,2 C 1,2 C 4,8 km/h (1 Bft) 100,00 %
09.01.2016 01:15 1,2 C 93 % 1005,6 hPa 0,0 l/m 2,1 km/h (1 Bft) S-SW 193 0 min 0,000 mm 0,0 UV-I 0 W/m 0,2 C 1,2 C 4,8 km/h (1 Bft) 98,20 %
09.01.2016 01:20 1,1 C 93 % 1005,6 hPa 0,0 l/m 2,5 km/h (1 Bft) S-SW 212 0 min 0,000 mm 0,0 UV-I 0 W/m 0,1 C 1,1 C 4,8 km/h (1 Bft) 100,00 %
09.01.2016 01:25 1,1 C 94 % 1005,7 hPa 0,0 l/m 2,3 km/h (1 Bft) S-SW 212 0 min 0,000 mm 0,0 UV-I 0 W/m 0,2 C 1,1 C 4,8 km/h (1 Bft) 99,11 %
09.01.2016 01:30 1,1 C 94 % 1005,7 hPa 0,0 l/m 2,5 km/h (1 Bft) S-SW 212 0 min 0,000 mm 0,0 UV-I 0 W/m 0,2 C 1,1 C 4,8 km/h (1 Bft) 100,00 %
09.01.2016 01:35 1,2 C 94 % 1005,6 hPa 0,0 l/m 1,4 km/h (1 Bft) S-SW 212 0 min 0,000 mm 0,0 UV-I 0 W/m 0,3 C 1,2 C 3,2 km/h (1 Bft) 99,08 %
09.01.2016 01:40 1,1 C 94 % 1005,8 hPa 0,0 l/m 0,4 km/h (0 Bft) S-SW 212 0 min 0,000 mm 0,0 UV-I 0 W/m 0,2 C 1,1 C 1,6 km/h (1 Bft) 99,19 %
09.01.2016 01:45 1,1 C 94 % 1005,9 hPa 0,0 l/m 1,7 km/h (1 Bft) S-SW 212 0 min 0,000 mm 0,0 UV-I 0 W/m 0,2 C 1,1 C 3,2 km/h (1 Bft) 100,00 %
09.01.2016 01:50 1,2 C 94 % 1005,9 hPa 0,0 l/m 1,4 km/h (1 Bft) S-SW 212 0 min 0,000 mm 0,0 UV-I 0 W/m 0,3 C 1,2 C 3,2 km/h (1 Bft) 99,19 %
09.01.2016 01:55 1,2 C 94 % 1005,9 hPa 0,0 l/m 0,2 km/h (0 Bft) S-SW 212 0 min 0,000 mm 0,0 UV-I 0 W/m 0,3 C 1,2 C 1,6 km/h (1 Bft) 100,00 %
09.01.2016 02:00 1,3 C 94 % 1006,0 hPa 0,0 l/m 0,0 km/h (0 Bft) S-SW 212 0 min 0,000 mm 0,0 UV-I 0 W/m 0,4 C 1,3 C 1,6 km/h (1 Bft) 100,00 %
09.01.2016 02:05 1,2 C 94 % 1006,0 hPa 0,0 l/m 1,1 km/h (1 Bft) S-SW 212 0 min 0,000 mm 0,0 UV-I 0 W/m 0,3 C 1,2 C 3,2 km/h (1 Bft) 98,35 %
09.01.2016 02:10 1,3 C 94 % 1006,1 hPa 0,0 l/m 0,2 km/h (0 Bft) S-SW 212 0 min 0,000 mm 0,0 UV-I 0 W/m 0,4 C 1,3 C 1,6 km/h (1 Bft) 97,56 %
09.01.2016 02:15 1,3 C 94 % 1006,1 hPa 0,0 l/m 1,4 km/h (1 Bft) S-SW 212 0 min 0,000 mm 0,0 UV-I 0 W/m 0,4 C 1,3 C 3,2 km/h (1 Bft) 97,25 %
09.01.2016 02:20 1,3 C 94 % 1006,1 hPa 0,0 l/m 0,0 km/h (0 Bft) S-SW 212 0 min 0,000 mm 0,0 UV-I 0 W/m 0,4 C 1,3 C 1,6 km/h (1 Bft) 98,33 %
09.01.2016 02:25 1,2 C 94 % 1006,1 hPa 0,0 l/m 0,1 km/h (0 Bft) S-SW 212 0 min 0,000 mm 0,0 UV-I 0 W/m 0,3 C 1,2 C 1,6 km/h (1 Bft) 96,61 %
09.01.2016 02:30 1,2 C 94 % 1006,2 hPa 0,0 l/m 0,0 km/h (0 Bft) S-SW 212 0 min 0,000 mm 0,0 UV-I 0 W/m 0,3 C 1,2 C 1,6 km/h (1 Bft) 97,52 %
09.01.2016 02:35 1,2 C 94 % 1006,3 hPa 0,0 l/m 0,2 km/h (0 Bft) S-SW 212 0 min 0,000 mm 0,0 UV-I 0 W/m 0,3 C 1,2 C 1,6 km/h (1 Bft) 97,30 %
09.01.2016 02:40 1,2 C 95 % 1006,3 hPa 0,0 l/m 1,0 km/h (0 Bft) S-SW 212 0 min 0,000 mm 0,0 UV-I 0 W/m 0,5 C 1,2 C 3,2 km/h (1 Bft) 98,35 %
09.01.2016 02:45 1,2 C 95 % 1006,3 hPa 0,0 l/m 0,7 km/h (0 Bft) S-SW 212 0 min 0,000 mm 0,0 UV-I 0 W/m 0,5 C 1,2 C 4,8 km/h (1 Bft) 100,00 %
09.01.2016 02:50 1,2 C 95 % 1006,3 hPa 0,0 l/m 0,9 km/h (0 Bft) S-SW 212 0 min 0,000 mm 0,0 UV-I 0 W/m 0,5 C 1,2 C 4,8 km/h (1 Bft) 98,37 %
09.01.2016 02:55 1,1 C 95 % 1006,3 hPa 0,0 l/m 2,6 km/h (1 Bft) S-SW 212 0 min 0,000 mm 0,0 UV-I 0 W/m 0,4 C 1,1 C 6,4 km/h (2 Bft) 100,00 %
09.01.2016 03:00 1,1 C 95 % 1006,4 hPa 0,0 l/m 3,3 km/h (1 Bft) S-SW 211 0 min 0,000 mm 0,0 UV-I 0 W/m 0,4 C 1,1 C 4,8 km/h (1 Bft) 99,10 %
09.01.2016 03:05 1,1 C 96 % 1006,3 hPa 0,2 l/m 3,1 km/h (1 Bft) S-SW 209 0 min 0,000 mm 0,0 UV-I 0 W/m 0,5 C 1,1 C 4,8 km/h (1 Bft) 99,21 %
09.01.2016 03:10 1,1 C 96 % 1006,3 hPa 0,0 l/m 2,5 km/h (1 Bft) S-SW 203 0 min 0,000 mm 0,0 UV-I 0 W/m 0,5 C 1,1 C 4,8 km/h (1 Bft) 98,26 %
09.01.2016 03:15 1,2 C 96 % 1006,2 hPa 0,0 l/m 2,2 km/h (1 Bft) S-SW 199 0 min 0,000 mm 0,0 UV-I 0 W/m 0,6 C 1,2 C 4,8 km/h (1 Bft) 100,00 %
09.01.2016 03:20 1,2 C 96 % 1006,3 hPa 0,0 l/m 1,5 km/h (1 Bft) S-SW 196 0 min 0,000 mm 0,0 UV-I 0 W/m 0,6 C 1,2 C 3,2 km/h (1 Bft) 100,00 %
09.01.2016 03:25 1,2 C 96 % 1006,3 hPa 0,0 l/m 1,4 km/h (1 Bft) S-SW 196 0 min 0,000 mm 0,0 UV-I 0 W/m 0,6 C 1,2 C 3,2 km/h (1 Bft) 100,00 %
09.01.2016 03:30 1,2 C 96 % 1006,3 hPa 0,0 l/m 0,9 km/h (0 Bft) S-SW 196 0 min 0,000 mm 0,0 UV-I 0 W/m 0,6 C 1,2 C 3,2 km/h (1 Bft) 100,00 %
09.01.2016 03:35 1,2 C 96 % 1006,0 hPa 0,2 l/m 1,5 km/h (1 Bft) S 174 0 min 0,000 mm 0,0 UV-I 0 W/m 0,6 C 1,2 C 3,2 km/h (1 Bft) 99,17 %
09.01.2016 03:40 1,2 C 96 % 1006,0 hPa 0,0 l/m 0,8 km/h (0 Bft) S 173 0 min 0,000 mm 0,0 UV-I 0 W/m 0,6 C 1,2 C 3,2 km/h (1 Bft) 100,00 %
09.01.2016 03:45 1,1 C 96 % 1006,1 hPa 0,0 l/m 0,4 km/h (0 Bft) S 173 0 min 0,000 mm 0,0 UV-I 0 W/m 0,5 C 1,1 C 1,6 km/h (1 Bft) 100,00 %
09.01.2016 03:50 1,2 C 96 % 1006,1 hPa 0,0 l/m 0,8 km/h (0 Bft) S 173 0 min 0,000 mm 0,0 UV-I 0 W/m 0,6 C 1,2 C 3,2 km/h (1 Bft) 99,08 %
09.01.2016 03:55 1,3 C 96 % 1006,1 hPa 0,0 l/m 0,7 km/h (0 Bft) S 173 0 min 0,000 mm 0,0 UV-I 0 W/m 0,7 C 1,3 C 3,2 km/h (1 Bft) 98,33 %
09.01.2016 04:00 1,2 C 96 % 1006,0 hPa 0,0 l/m 1,2 km/h (1 Bft) S-SO 161 0 min 0,000 mm 0,0 UV-I 0 W/m 0,6 C 1,2 C 6,4 km/h (2 Bft) 100,00 %
09.01.2016 04:05 1,2 C 96 % 1006,2 hPa 0,0 l/m 1,4 km/h (1 Bft) S-SO 162 0 min 0,000 mm 0,0 UV-I 0 W/m 0,6 C 1,2 C 3,2 km/h (1 Bft) 99,00 %
09.01.2016 04:10 1,2 C 96 % 1006,0 hPa 0,0 l/m 2,4 km/h (1 Bft) S-SO 162 0 min 0,000 mm 0,0 UV-I 0 W/m 0,6 C 1,2 C 6,4 km/h (2 Bft) 97,46 %
09.01.2016 04:15 1,2 C 96 % 1006,0 hPa 0,0 l/m 1,5 km/h (1 Bft) S-SO 162 0 min 0,000 mm 0,0 UV-I 0 W/m 0,6 C 1,2 C 3,2 km/h (1 Bft) 98,21 %
09.01.2016 04:20 1,1 C 96 % 1006,2 hPa 0,0 l/m 1,4 km/h (1 Bft) S-SO 162 0 min 0,000 mm 0,0 UV-I 0 W/m 0,5 C 1,1 C 3,2 km/h (1 Bft) 97,50 %
09.01.2016 04:25 1,1 C 96 % 1006,0 hPa 0,0 l/m 1,6 km/h (1 Bft) S-SO 162 0 min 0,000 mm 0,0 UV-I 0 W/m 0,5 C 1,1 C 3,2 km/h (1 Bft) 96,61 %
09.01.2016 04:30 1,1 C 96 % 1005,8 hPa 0,0 l/m 3,8 km/h (1 Bft) S-SO 163 0 min 0,000 mm 0,0 UV-I 0 W/m 0,5 C 1,1 C 6,4 km/h (2 Bft) 95,54 %
09.01.2016 04:35 1,2 C 96 % 1005,9 hPa 0,0 l/m 2,1 km/h (1 Bft) S-SO 163 0 min 0,000 mm 0,0 UV-I 0 W/m 0,6 C 1,2 C 3,2 km/h (1 Bft) 96,75 %
09.01.2016 04:40 1,1 C 96 % 1005,8 hPa 0,0 l/m 2,8 km/h (1 Bft) S-SO 163 0 min 0,000 mm 0,0 UV-I 0 W/m 0,5 C 1,1 C 6,4 km/h (2 Bft) 97,46 %
09.01.2016 04:45 1,1 C 96 % 1005,6 hPa 0,0 l/m 1,0 km/h (0 Bft) S-SO 163 0 min 0,000 mm 0,0 UV-I 0 W/m 0,5 C 1,1 C 3,2 km/h (1 Bft) 97,32 %
09.01.2016 04:50 1,1 C 96 % 1005,5 hPa 0,0 l/m 0,5 km/h (0 Bft) S-SO 163 0 min 0,000 mm 0,0 UV-I 0 W/m 0,5 C 1,1 C 1,6 km/h (1 Bft) 100,00 %
09.01.2016 04:55 1,0 C 97 % 1005,6 hPa 0,0 l/m 0,5 km/h (0 Bft) S-SO 163 0 min 0,000 mm 0,0 UV-I 0 W/m 0,6 C 1,0 C 1,6 km/h (1 Bft) 97,00 %
09.01.2016 05:00 1,0 C 97 % 1005,7 hPa 0,0 l/m 1,7 km/h (1 Bft) S-SO 163 0 min 0,000 mm 0,0 UV-I 0 W/m 0,6 C 1,0 C 3,2 km/h (1 Bft) 98,48 %
09.01.2016 05:05 0,9 C 97 % 1005,6 hPa 0,0 l/m 1,8 km/h (1 Bft) S-SO 163 0 min 0,000 mm 0,0 UV-I 0 W/m 0,5 C 0,9 C 3,2 km/h (1 Bft) 99,12 %
09.01.2016 05:10 0,8 C 97 % 1005,5 hPa 0,0 l/m 0,9 km/h (0 Bft) S-SO 163 0 min 0,000 mm 0,0 UV-I 0 W/m 0,4 C 0,8 C 3,2 km/h (1 Bft) 100,00 %
09.01.2016 05:15 0,8 C 97 % 1005,5 hPa 0,0 l/m 0,1 km/h (0 Bft) S-SO 163 0 min 0,000 mm 0,0 UV-I 0 W/m 0,4 C 0,8 C 1,6 km/h (1 Bft) 100,00 %
09.01.2016 05:20 0,8 C 97 % 1005,5 hPa 0,0 l/m 0,0 km/h (0 Bft) S-SO 163 0 min 0,000 mm 0,0 UV-I 0 W/m 0,4 C 0,8 C 0,0 km/h (0 Bft) 99,17 %
09.01.2016 05:25 0,8 C 97 % 1005,7 hPa 0,0 l/m 0,0 km/h (0 Bft) S-SO 163 0 min 0,000 mm 0,0 UV-I 0 W/m 0,4 C 0,8 C 1,6 km/h (1 Bft) 100,00 %
09.01.2016 05:30 0,8 C 97 % 1005,8 hPa 0,0 l/m 0,2 km/h (0 Bft) S-SO 163 0 min 0,000 mm 0,0 UV-I 0 W/m 0,4 C 0,8 C 1,6 km/h (1 Bft) 99,21 %
09.01.2016 05:35 0,8 C 97 % 1005,9 hPa 0,0 l/m 0,3 km/h (0 Bft) S-SO 163 0 min 0,000 mm 0,0 UV-I 0 W/m 0,4 C 0,8 C 1,6 km/h (1 Bft) 98,21 %
09.01.2016 05:40 0,9 C 97 % 1005,6 hPa 0,0 l/m 1,6 km/h (1 Bft) S-SO 163 0 min 0,000 mm 0,0 UV-I 0 W/m 0,5 C 0,9 C 3,2 km/h (1 Bft) 100,00 %
09.01.2016 05:45 0,9 C 97 % 1005,8 hPa 0,0 l/m 1,6 km/h (1 Bft) S-SO 163 0 min 0,000 mm 0,0 UV-I 0 W/m 0,5 C 0,9 C 3,2 km/h (1 Bft) 99,31 %
09.01.2016 05:50 1,0 C 97 % 1005,9 hPa 0,2 l/m 1,7 km/h (1 Bft) O 79 0 min 0,000 mm 0,0 UV-I 0 W/m 0,6 C 1,0 C 4,8 km/h (1 Bft) 100,00 %
09.01.2016 05:55 0,9 C 97 % 1005,7 hPa 0,0 l/m 3,9 km/h (1 Bft) NO 46 0 min 0,000 mm 0,0 UV-I 0 W/m 0,5 C 0,9 C 6,4 km/h (2 Bft) 100,00 %
09.01.2016 06:00 0,9 C 97 % 1005,6 hPa 0,0 l/m 4,8 km/h (1 Bft) NO 44 0 min 0,000 mm 0,0 UV-I 0 W/m 0,5 C 0,9 C 6,4 km/h (2 Bft) 99,11 %
09.01.2016 06:05 0,9 C 97 % 1005,6 hPa 0,0 l/m 4,3 km/h (1 Bft) NO 45 0 min 0,000 mm 0,0 UV-I 0 W/m 0,5 C 0,9 C 6,4 km/h (2 Bft) 98,40 %
09.01.2016 06:10 1,0 C 97 % 1005,6 hPa 0,0 l/m 4,5 km/h (1 Bft) NO 54 0 min 0,000 mm 0,0 UV-I 0 W/m 0,6 C 1,0 C 6,4 km/h (2 Bft) 99,17 %
09.01.2016 06:15 0,9 C 97 % 1005,5 hPa 0,0 l/m 3,9 km/h (1 Bft) NO 51 0 min 0,000 mm 0,0 UV-I 0 W/m 0,5 C 0,9 C 6,4 km/h (2 Bft) 99,17 %
09.01.2016 06:20 0,9 C 97 % 1005,6 hPa 0,0 l/m 3,1 km/h (1 Bft) NO 51 0 min 0,000 mm 0,0 UV-I 0 W/m 0,5 C 0,9 C 4,8 km/h (1 Bft) 98,20 %
09.01.2016 06:25 1,0 C 97 % 1005,5 hPa 0,0 l/m 4,0 km/h (1 Bft) NO 46 0 min 0,000 mm 0,0 UV-I 0 W/m 0,6 C 1,0 C 4,8 km/h (1 Bft) 97,52 %
09.01.2016 06:30 1,0 C 97 % 1005,4 hPa 0,0 l/m 4,2 km/h (1 Bft) NO 55 0 min 0,000 mm 0,0 UV-I 0 W/m 0,6 C 1,0 C 6,4 km/h (2 Bft) 97,39 %
09.01.2016 06:35 0,9 C 97 % 1005,6 hPa 0,0 l/m 5,1 km/h (1 Bft) NO 42 0 min 0,000 mm 0,0 UV-I 0 W/m 0,5 C 0,9 C 8,0 km/h (2 Bft) 98,15 %
09.01.2016 06:40 0,9 C 97 % 1005,5 hPa 0,0 l/m 3,5 km/h (1 Bft) NO 47 0 min 0,000 mm 0,0 UV-I 0 W/m 0,5 C 0,9 C 4,8 km/h (1 Bft) 97,58 %
09.01.2016 06:45 0,9 C 97 % 1005,6 hPa 0,0 l/m 3,7 km/h (1 Bft) NO 34 0 min 0,000 mm 0,0 UV-I 0 W/m 0,5 C 0,9 C 6,4 km/h (2 Bft) 97,46 %
09.01.2016 06:50 0,8 C 97 % 1005,6 hPa 0,0 l/m 2,6 km/h (1 Bft) N-NO 24 0 min 0,000 mm 0,0 UV-I 0 W/m 0,4 C 0,8 C 6,4 km/h (2 Bft) 97,30 %
09.01.2016 06:55 0,8 C 97 % 1005,6 hPa 0,0 l/m 5,9 km/h (2 Bft) NO 49 0 min 0,000 mm 0,0 UV-I 0 W/m 0,4 C 0,8 C 9,7 km/h (2 Bft) 98,31 %
09.01.2016 07:00 0,9 C 97 % 1005,7 hPa 0,0 l/m 3,4 km/h (1 Bft) NO 49 0 min 0,000 mm 0,0 UV-I 0 W/m 0,5 C 0,9 C 4,8 km/h (1 Bft) 99,19 %
09.01.2016 07:05 0,9 C 97 % 1005,8 hPa 0,0 l/m 3,7 km/h (1 Bft) NO 36 0 min 0,000 mm 0,0 UV-I 0 W/m 0,5 C 0,9 C 6,4 km/h (2 Bft) 100,00 %
09.01.2016 07:10 0,9 C 97 % 1005,9 hPa 0,0 l/m 4,2 km/h (1 Bft) NO 38 0 min 0,000 mm 0,0 UV-I 0 W/m 0,5 C 0,9 C 6,4 km/h (2 Bft) 100,00 %
09.01.2016 07:15 0,9 C 97 % 1006,0 hPa 0,0 l/m 3,5 km/h (1 Bft) N-NO 29 0 min 0,000 mm 0,0 UV-I 0 W/m 0,5 C 0,9 C 6,4 km/h (2 Bft) 99,10 %
09.01.2016 07:20 0,9 C 97 % 1005,9 hPa 0,0 l/m 2,3 km/h (1 Bft) N-NO 29 0 min 0,000 mm 0,0 UV-I 0 W/m 0,5 C 0,9 C 3,2 km/h (1 Bft) 99,19 %
09.01.2016 07:25 0,9 C 97 % 1005,9 hPa 0,0 l/m 2,2 km/h (1 Bft) N-NO 29 0 min 0,000 mm 0,0 UV-I 0 W/m 0,5 C 0,9 C 3,2 km/h (1 Bft) 100,00 %
09.01.2016 07:30 0,8 C 97 % 1006,0 hPa 0,0 l/m 2,0 km/h (1 Bft) N-NO 29 0 min 0,000 mm 0,0 UV-I 0 W/m 0,4 C 0,8 C 3,2 km/h (1 Bft) 99,21 %
09.01.2016 07:35 0,8 C 97 % 1006,1 hPa 0,0 l/m 1,6 km/h (1 Bft) N-NO 29 0 min 0,000 mm 0,0 UV-I 0 W/m 0,4 C 0,8 C 3,2 km/h (1 Bft) 100,00 %
09.01.2016 07:40 0,8 C 97 % 1006,0 hPa 0,0 l/m 3,0 km/h (1 Bft) O 96 0 min 0,000 mm 0,0 UV-I 0 W/m 0,4 C 0,8 C 6,4 km/h (2 Bft) 99,00 %
09.01.2016 07:45 0,9 C 97 % 1006,0 hPa 0,0 l/m 3,6 km/h (1 Bft) O-NO 67 0 min 0,000 mm 0,0 UV-I 0 W/m 0,5 C 0,9 C 6,4 km/h (2 Bft) 98,52 %
09.01.2016 07:50 0,9 C 97 % 1006,0 hPa 0,0 l/m 3,2 km/h (1 Bft) O-NO 59 0 min 0,000 mm 0,0 UV-I 0 W/m 0,5 C 0,9 C 6,4 km/h (2 Bft) 100,00 %
09.01.2016 07:55 0,8 C 97 % 1006,1 hPa 0,0 l/m 1,9 km/h (1 Bft) O-NO 59 0 min 0,000 mm 0,0 UV-I 0 W/m 0,4 C 0,8 C 3,2 km/h (1 Bft) 99,12 %
09.01.2016 08:00 0,8 C 97 % 1006,1 hPa 0,0 l/m 2,8 km/h (1 Bft) O-NO 63 0 min 0,000 mm 0,0 UV-I 5 W/m 0,4 C 0,8 C 4,8 km/h (1 Bft) 100,00 %
09.01.2016 08:05 0,9 C 97 % 1006,0 hPa 0,2 l/m 3,3 km/h (1 Bft) O-NO 69 0 min 0,000 mm 0,0 UV-I 7 W/m 0,5 C 0,9 C 6,4 km/h (2 Bft) 100,00 %
09.01.2016 08:10 0,9 C 97 % 1005,9 hPa 0,0 l/m 4,0 km/h (1 Bft) O 80 0 min 0,000 mm 0,0 UV-I 10 W/m 0,5 C 0,9 C 6,4 km/h (2 Bft) 99,22 %
09.01.2016 08:15 0,9 C 97 % 1005,8 hPa 0,0 l/m 4,2 km/h (1 Bft) O 83 0 min 0,000 mm 0,0 UV-I 11 W/m 0,5 C 0,9 C 9,7 km/h (2 Bft) 99,15 %
09.01.2016 08:20 0,9 C 97 % 1005,9 hPa 0,0 l/m 3,8 km/h (1 Bft) O 86 0 min 0,000 mm 0,0 UV-I 11 W/m 0,5 C 0,9 C 6,4 km/h (2 Bft) 99,08 %
09.01.2016 08:25 0,9 C 97 % 1005,9 hPa 0,0 l/m 4,6 km/h (1 Bft) O 88 0 min 0,000 mm 0,0 UV-I 13 W/m 0,5 C 0,9 C 9,7 km/h (2 Bft) 97,50 %
09.01.2016 08:30 0,9 C 97 % 1005,7 hPa 0,0 l/m 3,9 km/h (1 Bft) O 95 0 min 0,000 mm 0,0 UV-I 19 W/m 0,5 C 0,9 C 8,0 km/h (2 Bft) 96,77 %
09.01.2016 08:35 1,0 C 97 % 1005,6 hPa 0,0 l/m 5,3 km/h (1 Bft) O 87 0 min 0,000 mm 0,0 UV-I 27 W/m 0,6 C 1,0 C 9,7 km/h (2 Bft) 97,37 %
09.01.2016 08:40 1,0 C 97 % 1005,7 hPa 0,0 l/m 4,0 km/h (1 Bft) O 86 0 min 0,000 mm 0,0 UV-I 31 W/m 0,6 C 1,0 C 9,7 km/h (2 Bft) 97,46 %
09.01.2016 08:45 1,1 C 97 % 1005,6 hPa 0,0 l/m 4,4 km/h (1 Bft) O-NO 61 0 min 0,000 mm 0,0 UV-I 38 W/m 0,7 C 1,1 C 8,0 km/h (2 Bft) 97,32 %
09.01.2016 08:50 1,1 C 96 % 1005,7 hPa 0,0 l/m 3,5 km/h (1 Bft) O 92 0 min 0,000 mm 0,0 UV-I 29 W/m 0,5 C 1,1 C 9,7 km/h (2 Bft) 96,67 %
09.01.2016 08:55 1,2 C 96 % 1005,8 hPa 0,0 l/m 3,7 km/h (1 Bft) O 84 0 min 0,000 mm 0,0 UV-I 30 W/m 0,6 C 1,2 C 9,7 km/h (2 Bft) 98,35 %
09.01.2016 09:00 1,2 C 96 % 1005,7 hPa 0,0 l/m 2,5 km/h (1 Bft) O 94 0 min 0,000 mm 0,0 UV-I 31 W/m 0,6 C 1,2 C 6,4 km/h (2 Bft) 96,49 %
09.01.2016 09:05 1,2 C 96 % 1005,8 hPa 0,0 l/m 0,6 km/h (0 Bft) O 94 0 min 0,000 mm 0,0 UV-I 43 W/m 0,6 C 1,2 C 1,6 km/h (1 Bft) 99,15 %
09.01.2016 09:10 1,3 C 96 % 1005,9 hPa 0,0 l/m 0,5 km/h (0 Bft) O 94 0 min 0,000 mm 0,0 UV-I 46 W/m 0,7 C 1,3 C 3,2 km/h (1 Bft) 100,00 %
09.01.2016 09:15 1,2 C 96 % 1005,9 hPa 0,0 l/m 0,6 km/h (0 Bft) O 94 0 min 0,000 mm 0,0 UV-I 40 W/m 0,6 C 1,2 C 3,2 km/h (1 Bft) 99,15 %
09.01.2016 09:20 1,2 C 96 % 1006,1 hPa 0,0 l/m 4,2 km/h (1 Bft) N 10 0 min 0,000 mm 0,0 UV-I 52 W/m 0,6 C 1,2 C 6,4 km/h (2 Bft) 99,13 %
09.01.2016 09:25 1,1 C 96 % 1006,1 hPa 0,0 l/m 1,5 km/h (1 Bft) N-NO 13 0 min 0,000 mm 0,0 UV-I 70 W/m 0,5 C 1,1 C 3,2 km/h (1 Bft) 100,00 %
09.01.2016 09:30 1,2 C 97 % 1006,1 hPa 0,0 l/m 2,5 km/h (1 Bft) N-NO 26 0 min 0,000 mm 0,0 UV-I 53 W/m 0,8 C 1,2 C 9,7 km/h (2 Bft) 98,25 %
09.01.2016 09:35 1,2 C 97 % 1006,0 hPa 0,0 l/m 6,1 km/h (2 Bft) N 5 0 min 0,000 mm 0,0 UV-I 52 W/m 0,8 C 1,2 C 11,3 km/h (2 Bft) 99,17 %
09.01.2016 09:40 1,2 C 97 % 1006,0 hPa 0,0 l/m 6,4 km/h (2 Bft) N-NO 28 0 min 0,000 mm 0,0 UV-I 85 W/m 0,8 C 1,2 C 12,9 km/h (3 Bft) 100,00 %
09.01.2016 09:45 1,2 C 97 % 1006,1 hPa 0,0 l/m 4,8 km/h (1 Bft) N-NO 24 0 min 0,000 mm 0,0 UV-I 118 W/m 0,8 C 1,2 C 8,0 km/h (2 Bft) 99,13 %
09.01.2016 09:50 1,2 C 97 % 1006,4 hPa 0,0 l/m 2,9 km/h (1 Bft) N-NO 27 0 min 0,000 mm 0,0 UV-I 108 W/m 0,8 C 1,2 C 6,4 km/h (2 Bft) 99,11 %
09.01.2016 09:55 1,3 C 97 % 1006,3 hPa 0,0 l/m 3,2 km/h (1 Bft) NO 34 5 min 0,000 mm 0,0 UV-I 132 W/m 0,9 C 1,3 C 8,0 km/h (2 Bft) 99,11 %
09.01.2016 10:00 1,4 C 96 % 1006,3 hPa 0,0 l/m 4,9 km/h (1 Bft) N-NO 19 5 min 0,025 mm 0,0 UV-I 137 W/m 0,8 C 1,4 C 8,0 km/h (2 Bft) 99,24 %
09.01.2016 10:05 1,5 C 96 % 1006,4 hPa 0,0 l/m 4,4 km/h (1 Bft) N-NO 24 0 min 0,000 mm 0,0 UV-I 115 W/m 0,9 C 1,5 C 6,4 km/h (2 Bft) 100,00 %
09.01.2016 10:10 1,6 C 96 % 1006,2 hPa 0,0 l/m 4,7 km/h (1 Bft) NO 42 0 min 0,000 mm 0,0 UV-I 121 W/m 1,0 C 1,6 C 6,4 km/h (2 Bft) 98,29 %
09.01.2016 10:15 1,6 C 96 % 1006,2 hPa 0,0 l/m 4,4 km/h (1 Bft) NO 42 0 min 0,000 mm 0,0 UV-I 135 W/m 1,0 C 1,6 C 8,0 km/h (2 Bft) 99,11 %
09.01.2016 10:20 1,7 C 96 % 1006,3 hPa 0,0 l/m 3,6 km/h (1 Bft) NO 41 0 min 0,000 mm 0,0 UV-I 125 W/m 1,1 C 1,7 C 6,4 km/h (2 Bft) 100,00 %
09.01.2016 10:25 1,7 C 95 % 1006,3 hPa 0,0 l/m 4,5 km/h (1 Bft) O-NO 61 0 min 0,000 mm 0,0 UV-I 141 W/m 1,0 C 1,7 C 6,4 km/h (2 Bft) 97,25 %
09.01.2016 10:30 1,8 C 94 % 1006,3 hPa 0,0 l/m 5,0 km/h (1 Bft) O-NO 65 0 min 0,000 mm 0,0 UV-I 151 W/m 0,9 C 1,8 C 8,0 km/h (2 Bft) 96,06 %
09.01.2016 10:35 1,8 C 95 % 1006,3 hPa 0,0 l/m 5,1 km/h (1 Bft) O-NO 59 0 min 0,000 mm 0,0 UV-I 138 W/m 1,1 C 1,8 C 8,0 km/h (2 Bft) 96,19 %
09.01.2016 10:40 1,8 C 94 % 1006,2 hPa 0,0 l/m 6,8 km/h (2 Bft) O-NO 65 5 min 0,000 mm 0,1 UV-I 165 W/m 0,9 C 1,4 C 9,7 km/h (2 Bft) 96,52 %
09.01.2016 10:45 1,9 C 94 % 1006,2 hPa 0,0 l/m 6,1 km/h (2 Bft) O-NO 61 5 min 0,000 mm 0,5 UV-I 196 W/m 1,0 C 1,9 C 8,0 km/h (2 Bft) 96,77 %
09.01.2016 10:50 2,2 C 94 % 1006,1 hPa 0,0 l/m 5,3 km/h (1 Bft) O-NO 62 5 min 0,000 mm 0,6 UV-I 282 W/m 1,3 C 2,2 C 9,7 km/h (2 Bft) 95,93 %
09.01.2016 10:55 2,3 C 94 % 1006,1 hPa 0,0 l/m 6,2 km/h (2 Bft) O-NO 69 5 min 0,000 mm 0,6 UV-I 321 W/m 1,4 C 2,3 C 11,3 km/h (2 Bft) 98,26 %
09.01.2016 11:00 2,4 C 93 % 1006,0 hPa 0,0 l/m 7,3 km/h (2 Bft) O-NO 60 5 min 0,077 mm 0,6 UV-I 268 W/m 1,4 C 1,5 C 9,7 km/h (2 Bft) 98,21 %
09.01.2016 11:05 2,3 C 93 % 1006,1 hPa 0,0 l/m 7,0 km/h (2 Bft) NO 47 5 min 0,000 mm 0,6 UV-I 181 W/m 1,3 C 1,7 C 11,3 km/h (2 Bft) 100,00 %
09.01.2016 11:10 2,3 C 93 % 1006,0 hPa 0,0 l/m 5,6 km/h (1 Bft) O 79 0 min 0,000 mm 0,6 UV-I 172 W/m 1,3 C 2,3 C 8,0 km/h (2 Bft) 98,31 %
09.01.2016 11:15 2,3 C 93 % 1006,0 hPa 0,0 l/m 5,1 km/h (1 Bft) O-NO 60 0 min 0,000 mm 0,6 UV-I 125 W/m 1,3 C 2,3 C 8,0 km/h (2 Bft) 100,00 %
09.01.2016 11:20 2,2 C 93 % 1006,0 hPa 0,0 l/m 5,9 km/h (2 Bft) NO 53 0 min 0,000 mm 0,6 UV-I 153 W/m 1,2 C 2,2 C 8,0 km/h (2 Bft) 100,00 %
09.01.2016 11:25 2,3 C 93 % 1005,8 hPa 0,0 l/m 5,5 km/h (1 Bft) NO 52 5 min 0,000 mm 0,6 UV-I 208 W/m 1,3 C 2,3 C 8,0 km/h (2 Bft) 100,00 %
09.01.2016 11:30 2,3 C 93 % 1005,8 hPa 0,0 l/m 6,3 km/h (2 Bft) O-NO 74 0 min 0,000 mm 0,6 UV-I 170 W/m 1,3 C 2,3 C 9,7 km/h (2 Bft) 99,15 %
09.01.2016 11:35 2,2 C 92 % 1005,7 hPa 0,0 l/m 6,7 km/h (2 Bft) O-NO 76 0 min 0,000 mm 0,6 UV-I 184 W/m 1,0 C 1,9 C 9,7 km/h (2 Bft) 96,33 %
09.01.2016 11:40 2,3 C 92 % 1005,6 hPa 0,0 l/m 5,6 km/h (1 Bft) O-NO 61 5 min 0,000 mm 0,6 UV-I 195 W/m 1,1 C 2,3 C 8,0 km/h (2 Bft) 100,00 %
09.01.2016 11:45 2,3 C 92 % 1005,6 hPa 0,0 l/m 4,8 km/h (1 Bft) NO 50 5 min 0,000 mm 0,7 UV-I 206 W/m 1,1 C 2,3 C 8,0 km/h (2 Bft) 100,00 %
09.01.2016 11:50 2,3 C 92 % 1005,6 hPa 0,0 l/m 3,8 km/h (1 Bft) NO 36 5 min 0,000 mm 0,7 UV-I 193 W/m 1,1 C 2,3 C 6,4 km/h (2 Bft) 98,35 %
09.01.2016 11:55 2,2 C 92 % 1005,6 hPa 0,0 l/m 3,1 km/h (1 Bft) N-NO 30 0 min 0,000 mm 0,6 UV-I 168 W/m 1,0 C 2,2 C 6,4 km/h (2 Bft) 100,00 %
09.01.2016 12:00 2,2 C 92 % 1005,4 hPa 0,0 l/m 4,3 km/h (1 Bft) O-NO 63 0 min 0,076 mm 0,6 UV-I 169 W/m 1,0 C 2,2 C 6,4 km/h (2 Bft) 99,15 %
09.01.2016 12:05 2,2 C 92 % 1005,4 hPa 0,0 l/m 4,6 km/h (1 Bft) O-NO 58 0 min 0,000 mm 0,6 UV-I 167 W/m 1,0 C 2,2 C 6,4 km/h (2 Bft) 96,83 %
09.01.2016 12:15 2,2 C 91 % 1005,4 hPa 0,0 l/m 5,1 km/h (1 Bft) NO 54 0 min 0,000 mm 0,5 UV-I 128 W/m 0,9 C 2,2 C 8,0 km/h (2 Bft) 97,98 %
09.01.2016 12:20 2,2 C 92 % 1005,2 hPa 0,0 l/m 4,8 km/h (1 Bft) NO 36 0 min 0,000 mm 0,5 UV-I 129 W/m 1,0 C 2,2 C 6,4 km/h (2 Bft) 97,30 %
09.01.2016 12:25 2,2 C 92 % 1005,0 hPa 0,0 l/m 7,0 km/h (2 Bft) NO 55 0 min 0,000 mm 0,6 UV-I 134 W/m 1,0 C 1,6 C 9,7 km/h (2 Bft) 96,69 %
09.01.2016 12:30 2,2 C 92 % 1005,0 hPa 0,0 l/m 6,0 km/h (2 Bft) NO 50 0 min 0,000 mm 0,6 UV-I 141 W/m 1,0 C 2,2 C 9,7 km/h (2 Bft) 97,32 %
09.01.2016 12:35 2,1 C 92 % 1005,1 hPa 0,0 l/m 5,6 km/h (1 Bft) NO 55 0 min 0,000 mm 0,5 UV-I 140 W/m 0,9 C 2,1 C 8,0 km/h (2 Bft) 98,11 %
09.01.2016 12:40 2,2 C 92 % 1005,4 hPa 0,0 l/m 4,8 km/h (1 Bft) NO 44 0 min 0,000 mm 0,5 UV-I 143 W/m 1,0 C 2,2 C 8,0 km/h (2 Bft) 97,62 %
09.01.2016 12:45 2,2 C 92 % 1005,2 hPa 0,0 l/m 4,0 km/h (1 Bft) NO 44 0 min 0,000 mm 0,5 UV-I 134 W/m 1,0 C 2,2 C 6,4 km/h (2 Bft) 98,35 %
09.01.2016 12:50 2,2 C 92 % 1005,2 hPa 0,0 l/m 3,7 km/h (1 Bft) NO 43 0 min 0,000 mm 0,5 UV-I 149 W/m 1,0 C 2,2 C 6,4 km/h (2 Bft) 99,17 %
09.01.2016 12:55 2,2 C 92 % 1005,1 hPa 0,0 l/m 5,6 km/h (1 Bft) N-NO 15 0 min 0,000 mm 0,5 UV-I 164 W/m 1,0 C 2,2 C 9,7 km/h (2 Bft) 99,13 %
09.01.2016 13:00 2,2 C 92 % 1005,1 hPa 0,0 l/m 5,5 km/h (1 Bft) N 360 0 min 0,051 mm 0,5 UV-I 174 W/m 1,0 C 2,2 C 11,3 km/h (2 Bft) 99,11 %
09.01.2016 13:05 2,2 C 92 % 1005,2 hPa 0,0 l/m 4,9 km/h (1 Bft) N 5 0 min 0,000 mm 0,5 UV-I 156 W/m 1,0 C 2,2 C 9,7 km/h (2 Bft) 99,17 %
09.01.2016 13:10 2,2 C 91 % 1005,2 hPa 0,0 l/m 3,1 km/h (1 Bft) N-NO 15 5 min 0,000 mm 0,5 UV-I 186 W/m 0,9 C 2,2 C 9,7 km/h (2 Bft) 99,17 %
09.01.2016 13:15 2,3 C 92 % 1005,0 hPa 0,0 l/m 8,1 km/h (2 Bft) N 9 5 min 0,000 mm 0,6 UV-I 215 W/m 1,1 C 0,7 C 12,9 km/h (3 Bft) 98,15 %
09.01.2016 13:20 2,4 C 91 % 1005,0 hPa 0,0 l/m 5,6 km/h (1 Bft) N-NO 13 5 min 0,000 mm 0,6 UV-I 177 W/m 1,1 C 2,4 C 11,3 km/h (2 Bft) 100,00 %
09.01.2016 13:30 2,4 C 91 % 1005,0 hPa 0,0 l/m 5,7 km/h (1 Bft) N-NO 13 10 min 0,000 mm 0,5 UV-I 173 W/m 1,1 C 2,4 C 8,0 km/h (2 Bft) 99,06 %
09.01.2016 13:35 2,4 C 91 % 1004,9 hPa 0,0 l/m 5,6 km/h (1 Bft) N-NO 33 0 min 0,000 mm 0,1 UV-I 135 W/m 1,1 C 2,4 C 8,0 km/h (2 Bft) 100,00 %
09.01.2016 13:40 2,4 C 91 % 1005,0 hPa 0,0 l/m 3,5 km/h (1 Bft) NO 38 0 min 0,000 mm 0,0 UV-I 113 W/m 1,1 C 2,4 C 8,0 km/h (2 Bft) 98,26 %
09.01.2016 13:45 2,4 C 91 % 1004,9 hPa 0,0 l/m 4,1 km/h (1 Bft) NO 46 0 min 0,000 mm 0,0 UV-I 115 W/m 1,1 C 2,4 C 6,4 km/h (2 Bft) 100,00 %
09.01.2016 13:50 2,6 C 91 % 1004,8 hPa 0,0 l/m 4,5 km/h (1 Bft) O-NO 57 0 min 0,000 mm 0,0 UV-I 143 W/m 1,3 C 2,6 C 6,4 km/h (2 Bft) 97,39 %
09.01.2016 13:55 2,5 C 90 % 1004,8 hPa 0,0 l/m 5,9 km/h (2 Bft) O-NO 62 0 min 0,000 mm 0,0 UV-I 121 W/m 1,0 C 2,5 C 8,0 km/h (2 Bft) 99,12 %
09.01.2016 14:00 2,5 C 90 % 1004,8 hPa 0,0 l/m 6,8 km/h (2 Bft) NO 52 0 min 0,050 mm 0,0 UV-I 127 W/m 1,0 C 2,1 C 9,7 km/h (2 Bft) 100,00 %
09.01.2016 14:05 2,5 C 90 % 1004,9 hPa 0,0 l/m 6,9 km/h (2 Bft) O-NO 72 0 min 0,000 mm 0,0 UV-I 112 W/m 1,0 C 2,0 C 9,7 km/h (2 Bft) 98,18 %
09.01.2016 14:10 2,4 C 90 % 1004,8 hPa 0,0 l/m 5,7 km/h (1 Bft) NO 55 0 min 0,000 mm 0,0 UV-I 110 W/m 0,9 C 2,4 C 8,0 km/h (2 Bft) 95,73 %
09.01.2016 14:15 2,4 C 90 % 1004,8 hPa 0,0 l/m 6,5 km/h (2 Bft) O-NO 57 0 min 0,000 mm 0,0 UV-I 125 W/m 0,9 C 2,3 C 9,7 km/h (2 Bft) 97,46 %
09.01.2016 14:20 2,5 C 90 % 1004,8 hPa 0,0 l/m 7,0 km/h (2 Bft) O 80 0 min 0,000 mm 0,0 UV-I 110 W/m 1,0 C 1,9 C 12,9 km/h (3 Bft) 96,67 %
09.01.2016 14:25 2,4 C 89 % 1004,8 hPa 0,0 l/m 6,4 km/h (2 Bft) O-NO 62 0 min 0,000 mm 0,0 UV-I 88 W/m 0,8 C 2,4 C 11,3 km/h (2 Bft) 96,69 %
09.01.2016 14:30 2,4 C 90 % 1004,7 hPa 0,0 l/m 4,3 km/h (1 Bft) O-SO 103 0 min 0,000 mm 0,0 UV-I 81 W/m 0,9 C 2,4 C 9,7 km/h (2 Bft) 96,61 %
09.01.2016 14:35 2,4 C 90 % 1004,7 hPa 0,0 l/m 5,0 km/h (1 Bft) O-NO 63 0 min 0,000 mm 0,0 UV-I 85 W/m 0,9 C 2,4 C 9,7 km/h (2 Bft) 98,25 %
09.01.2016 14:40 2,4 C 90 % 1004,7 hPa 0,0 l/m 2,6 km/h (1 Bft) O-SO 109 0 min 0,000 mm 0,0 UV-I 81 W/m 0,9 C 2,4 C 6,4 km/h (2 Bft) 97,46 %
09.01.2016 14:45 2,3 C 91 % 1004,7 hPa 0,0 l/m 3,8 km/h (1 Bft) SO 128 0 min 0,000 mm 0,0 UV-I 67 W/m 1,0 C 2,3 C 9,7 km/h (2 Bft) 99,11 %
09.01.2016 14:50 2,4 C 90 % 1004,8 hPa 0,0 l/m 2,0 km/h (1 Bft) O-SO 123 0 min 0,000 mm 0,0 UV-I 57 W/m 0,9 C 2,4 C 6,4 km/h (2 Bft) 98,37 %
09.01.2016 14:55 2,3 C 90 % 1004,9 hPa 0,0 l/m 0,5 km/h (0 Bft) O-SO 123 0 min 0,000 mm 0,0 UV-I 48 W/m 0,8 C 2,3 C 3,2 km/h (1 Bft) 96,52 %
09.01.2016 15:00 2,3 C 90 % 1005,0 hPa 0,0 l/m 0,1 km/h (0 Bft) O-SO 123 0 min 0,026 mm 0,0 UV-I 41 W/m 0,8 C 2,3 C 1,6 km/h (1 Bft) 99,13 %
09.01.2016 15:05 2,3 C 90 % 1005,1 hPa 0,0 l/m 3,8 km/h (1 Bft) SO 135 0 min 0,000 mm 0,0 UV-I 35 W/m 0,8 C 2,3 C 6,4 km/h (2 Bft) 100,00 %
09.01.2016 15:10 2,2 C 90 % 1005,1 hPa 0,0 l/m 2,6 km/h (1 Bft) O-SO 123 0 min 0,000 mm 0,0 UV-I 29 W/m 0,7 C 2,2 C 4,8 km/h (1 Bft) 99,11 %
09.01.2016 15:15 2,2 C 91 % 1005,2 hPa 0,0 l/m 0,6 km/h (0 Bft) O-SO 123 0 min 0,000 mm 0,0 UV-I 24 W/m 0,9 C 2,2 C 3,2 km/h (1 Bft) 99,19 %
09.01.2016 15:20 2,2 C 91 % 1005,1 hPa 0,0 l/m 0,0 km/h (0 Bft) O-SO 123 0 min 0,000 mm 0,0 UV-I 22 W/m 0,9 C 2,2 C 1,6 km/h (1 Bft) 100,00 %
09.01.2016 15:25 2,1 C 91 % 1005,1 hPa 0,0 l/m 0,0 km/h (0 Bft) O-SO 123 0 min 0,000 mm 0,0 UV-I 27 W/m 0,8 C 2,1 C 0,0 km/h (0 Bft) 100,00 %
09.01.2016 15:30 2,1 C 91 % 1005,2 hPa 0,0 l/m 0,0 km/h (0 Bft) O-SO 123 0 min 0,000 mm 0,0 UV-I 27 W/m 0,8 C 2,1 C 0,0 km/h (0 Bft) 99,10 %
09.01.2016 15:35 2,1 C 92 % 1005,4 hPa 0,0 l/m 0,5 km/h (0 Bft) O-SO 123 0 min 0,000 mm 0,0 UV-I 24 W/m 0,9 C 2,1 C 1,6 km/h (1 Bft) 100,00 %
09.01.2016 15:40 2,1 C 92 % 1005,4 hPa 0,0 l/m 0,2 km/h (0 Bft) O-SO 123 0 min 0,000 mm 0,0 UV-I 18 W/m 0,9 C 2,1 C 1,6 km/h (1 Bft) 99,19 %
09.01.2016 15:45 2,0 C 93 % 1005,4 hPa 0,0 l/m 0,1 km/h (0 Bft) O-SO 123 0 min 0,000 mm 0,0 UV-I 15 W/m 1,0 C 2,0 C 1,6 km/h (1 Bft) 100,00 %
09.01.2016 15:50 1,9 C 94 % 1005,5 hPa 0,0 l/m 0,0 km/h (0 Bft) O-SO 123 0 min 0,000 mm 0,0 UV-I 11 W/m 1,0 C 1,9 C 0,0 km/h (0 Bft) 99,19 %
09.01.2016 15:55 1,8 C 94 % 1005,5 hPa 0,0 l/m 1,2 km/h (1 Bft) O-SO 123 0 min 0,000 mm 0,0 UV-I 7 W/m 0,9 C 1,8 C 3,2 km/h (1 Bft) 100,00 %
09.01.2016 16:00 1,9 C 94 % 1005,5 hPa 0,0 l/m 1,7 km/h (1 Bft) O-SO 123 0 min 0,000 mm 0,0 UV-I 7 W/m 1,0 C 1,9 C 3,2 km/h (1 Bft) 98,39 %
09.01.2016 16:05 1,8 C 94 % 1005,5 hPa 0,0 l/m 2,0 km/h (1 Bft) O-SO 123 0 min 0,000 mm 0,0 UV-I 5 W/m 0,9 C 1,8 C 3,2 km/h (1 Bft) 98,17 %
09.01.2016 16:10 1,7 C 95 % 1005,6 hPa 0,0 l/m 1,5 km/h (1 Bft) O-SO 123 0 min 0,000 mm 0,0 UV-I 2 W/m 1,0 C 1,7 C 3,2 km/h (1 Bft) 99,21 %
09.01.2016 16:15 1,7 C 95 % 1005,6 hPa 0,0 l/m 1,7 km/h (1 Bft) O-SO 123 0 min 0,000 mm 0,0 UV-I 0 W/m 1,0 C 1,7 C 3,2 km/h (1 Bft) 100,00 %
09.01.2016 16:20 1,8 C 94 % 1005,6 hPa 0,0 l/m 2,8 km/h (1 Bft) O-SO 107 0 min 0,000 mm 0,0 UV-I 0 W/m 0,9 C 1,8 C 4,8 km/h (1 Bft) 97,30 %
09.01.2016 16:25 1,8 C 94 % 1005,7 hPa 0,0 l/m 1,8 km/h (1 Bft) O-SO 107 0 min 0,000 mm 0,0 UV-I 0 W/m 0,9 C 1,8 C 3,2 km/h (1 Bft) 98,31 %
09.01.2016 16:30 1,7 C 94 % 1005,8 hPa 0,2 l/m 0,5 km/h (0 Bft) O-SO 107 0 min 0,000 mm 0,0 UV-I 0 W/m 0,8 C 1,7 C 1,6 km/h (1 Bft) 96,77 %
09.01.2016 16:35 1,6 C 95 % 1005,8 hPa 0,0 l/m 1,2 km/h (1 Bft) O-SO 107 0 min 0,000 mm 0,0 UV-I 0 W/m 0,9 C 1,6 C 1,6 km/h (1 Bft) 95,61 %
09.01.2016 16:40 1,6 C 96 % 1005,8 hPa 0,0 l/m 1,4 km/h (1 Bft) O-SO 107 0 min 0,000 mm 0,0 UV-I 0 W/m 1,0 C 1,6 C 3,2 km/h (1 Bft) 97,58 %
09.01.2016 16:45 1,6 C 96 % 1005,8 hPa 0,0 l/m 0,6 km/h (0 Bft) O-SO 107 0 min 0,000 mm 0,0 UV-I 0 W/m 1,0 C 1,6 C 3,2 km/h (1 Bft) 95,28 %
09.01.2016 16:50 1,6 C 95 % 1005,9 hPa 0,0 l/m 0,2 km/h (0 Bft) O-SO 107 0 min 0,000 mm 0,0 UV-I 0 W/m 0,9 C 1,6 C 1,6 km/h (1 Bft) 95,93 %
09.01.2016 16:55 1,6 C 95 % 1005,8 hPa 0,0 l/m 1,1 km/h (1 Bft) O-SO 107 0 min 0,000 mm 0,0 UV-I 0 W/m 0,9 C 1,6 C 3,2 km/h (1 Bft) 97,52 %
09.01.2016 17:00 1,5 C 96 % 1005,9 hPa 0,0 l/m 1,6 km/h (1 Bft) O-SO 107 0 min 0,000 mm 0,0 UV-I 0 W/m 0,9 C 1,5 C 3,2 km/h (1 Bft) 98,25 %
09.01.2016 17:05 1,5 C 96 % 1005,9 hPa 0,0 l/m 0,6 km/h (0 Bft) O-SO 107 0 min 0,000 mm 0,0 UV-I 0 W/m 0,9 C 1,5 C 1,6 km/h (1 Bft) 98,31 %
09.01.2016 17:10 1,6 C 96 % 1006,0 hPa 0,2 l/m 0,2 km/h (0 Bft) O-SO 107 0 min 0,000 mm 0,0 UV-I 0 W/m 1,0 C 1,6 C 1,6 km/h (1 Bft) 99,08 %
09.01.2016 17:15 1,6 C 96 % 1006,0 hPa 0,2 l/m 0,0 km/h (0 Bft) O-SO 107 0 min 0,000 mm 0,0 UV-I 0 W/m 1,0 C 1,6 C 0,0 km/h (0 Bft) 99,12 %
09.01.2016 17:20 1,6 C 96 % 1006,0 hPa 0,0 l/m 0,1 km/h (0 Bft) O-SO 107 0 min 0,000 mm 0,0 UV-I 0 W/m 1,0 C 1,6 C 1,6 km/h (1 Bft) 99,21 %
09.01.2016 17:25 1,6 C 96 % 1006,0 hPa 0,2 l/m 1,3 km/h (1 Bft) O-SO 107 0 min 0,000 mm 0,0 UV-I 0 W/m 1,0 C 1,6 C 3,2 km/h (1 Bft) 100,00 %
09.01.2016 17:30 1,6 C 96 % 1006,0 hPa 0,0 l/m 2,5 km/h (1 Bft) O-SO 107 0 min 0,000 mm 0,0 UV-I 0 W/m 1,0 C 1,6 C 4,8 km/h (1 Bft) 98,25 %
09.01.2016 17:35 1,6 C 96 % 1005,9 hPa 0,2 l/m 3,2 km/h (1 Bft) O-NO 67 0 min 0,000 mm 0,0 UV-I 0 W/m 1,0 C 1,6 C 4,8 km/h (1 Bft) 100,00 %
09.01.2016 17:40 1,6 C 96 % 1005,8 hPa 0,0 l/m 5,1 km/h (1 Bft) O-NO 74 0 min 0,000 mm 0,0 UV-I 0 W/m 1,0 C 1,6 C 8,0 km/h (2 Bft) 99,08 %
09.01.2016 17:45 1,6 C 96 % 1005,8 hPa 0,0 l/m 5,8 km/h (2 Bft) O-NO 76 0 min 0,000 mm 0,0 UV-I 0 W/m 1,0 C 1,6 C 8,0 km/h (2 Bft) 100,00 %
09.01.2016 17:50 1,6 C 96 % 1005,7 hPa 0,0 l/m 7,5 km/h (2 Bft) O-NO 62 0 min 0,000 mm 0,0 UV-I 0 W/m 1,0 C 0,5 C 12,9 km/h (3 Bft) 98,46 %
09.01.2016 17:55 1,5 C 96 % 1005,6 hPa 0,0 l/m 6,3 km/h (2 Bft) O-NO 74 0 min 0,000 mm 0,0 UV-I 0 W/m 0,9 C 1,5 C 9,7 km/h (2 Bft) 99,21 %
09.01.2016 18:00 1,5 C 95 % 1005,7 hPa 0,0 l/m 5,5 km/h (1 Bft) O 92 0 min 0,000 mm 0,0 UV-I 0 W/m 0,8 C 1,5 C 9,7 km/h (2 Bft) 100,00 %
09.01.2016 18:05 1,4 C 95 % 1005,7 hPa 0,0 l/m 5,4 km/h (1 Bft) O-SO 103 0 min 0,000 mm 0,0 UV-I 0 W/m 0,7 C 1,4 C 11,3 km/h (2 Bft) 99,07 %
09.01.2016 18:10 1,3 C 96 % 1005,7 hPa 0,0 l/m 6,9 km/h (2 Bft) SO 126 0 min 0,000 mm 0,0 UV-I 0 W/m 0,7 C 0,8 C 11,3 km/h (2 Bft) 98,33 %
09.01.2016 18:15 1,3 C 96 % 1005,6 hPa 0,2 l/m 4,2 km/h (1 Bft) O 101 0 min 0,000 mm 0,0 UV-I 0 W/m 0,7 C 1,3 C 9,7 km/h (2 Bft) 100,00 %
09.01.2016 18:20 1,3 C 96 % 1005,7 hPa 0,0 l/m 0,8 km/h (0 Bft) O-SO 107 0 min 0,000 mm 0,0 UV-I 0 W/m 0,7 C 1,3 C 6,4 km/h (2 Bft) 98,20 %
09.01.2016 18:25 1,3 C 96 % 1005,7 hPa 0,0 l/m 1,1 km/h (1 Bft) O 96 0 min 0,000 mm 0,0 UV-I 0 W/m 0,7 C 1,3 C 4,8 km/h (1 Bft) 98,26 %
09.01.2016 18:30 1,3 C 96 % 1005,7 hPa 0,0 l/m 2,0 km/h (1 Bft) O-SO 103 0 min 0,000 mm 0,0 UV-I 0 W/m 0,7 C 1,3 C 6,4 km/h (2 Bft) 96,85 %
09.01.2016 18:35 1,3 C 96 % 1005,6 hPa 0,0 l/m 3,2 km/h (1 Bft) O 82 0 min 0,000 mm 0,0 UV-I 0 W/m 0,7 C 1,3 C 6,4 km/h (2 Bft) 96,30 %
09.01.2016 18:40 1,3 C 96 % 1005,6 hPa 0,0 l/m 4,6 km/h (1 Bft) O 81 0 min 0,000 mm 0,0 UV-I 0 W/m 0,7 C 1,3 C 6,4 km/h (2 Bft) 97,39 %
09.01.2016 18:45 1,2 C 96 % 1005,6 hPa 0,0 l/m 3,6 km/h (1 Bft) O-NO 75 0 min 0,000 mm 0,0 UV-I 0 W/m 0,6 C 1,2 C 6,4 km/h (2 Bft) 96,77 %
09.01.2016 18:50 1,2 C 96 % 1005,6 hPa 0,0 l/m 4,0 km/h (1 Bft) NO 49 0 min 0,000 mm 0,0 UV-I 0 W/m 0,6 C 1,2 C 6,4 km/h (2 Bft) 98,20 %
09.01.2016 18:55 1,2 C 96 % 1005,6 hPa 0,0 l/m 2,9 km/h (1 Bft) NO 49 0 min 0,000 mm 0,0 UV-I 0 W/m 0,6 C 1,2 C 4,8 km/h (1 Bft) 96,69 %
09.01.2016 19:00 1,2 C 96 % 1005,6 hPa 0,2 l/m 2,8 km/h (1 Bft) O-NO 57 0 min 0,000 mm 0,0 UV-I 0 W/m 0,6 C 1,2 C 4,8 km/h (1 Bft) 96,67 %
09.01.2016 19:05 1,2 C 96 % 1005,5 hPa 0,0 l/m 3,5 km/h (1 Bft) O-NO 58 0 min 0,000 mm 0,0 UV-I 0 W/m 0,6 C 1,2 C 6,4 km/h (2 Bft) 99,13 %
09.01.2016 19:10 1,2 C 96 % 1005,5 hPa 0,0 l/m 5,5 km/h (1 Bft) O-NO 66 0 min 0,000 mm 0,0 UV-I 0 W/m 0,6 C 1,2 C 8,0 km/h (2 Bft) 100,00 %
09.01.2016 19:15 1,1 C 96 % 1005,5 hPa 0,0 l/m 5,7 km/h (1 Bft) O-NO 57 0 min 0,000 mm 0,0 UV-I 0 W/m 0,5 C 1,1 C 8,0 km/h (2 Bft) 97,58 %
09.01.2016 19:20 1,1 C 96 % 1005,3 hPa 0,0 l/m 5,8 km/h (2 Bft) O-NO 59 0 min 0,000 mm 0,0 UV-I 0 W/m 0,5 C 1,1 C 8,0 km/h (2 Bft) 100,00 %
09.01.2016 19:25 1,1 C 96 % 1005,4 hPa 0,0 l/m 5,0 km/h (1 Bft) N-NO 30 0 min 0,000 mm 0,0 UV-I 0 W/m 0,5 C 1,1 C 8,0 km/h (2 Bft) 99,11 %
09.01.2016 19:30 1,0 C 97 % 1005,5 hPa 0,0 l/m 5,0 km/h (1 Bft) NO 56 0 min 0,000 mm 0,0 UV-I 0 W/m 0,6 C 1,0 C 8,0 km/h (2 Bft) 99,21 %
09.01.2016 19:35 1,0 C 97 % 1005,5 hPa 0,0 l/m 5,1 km/h (1 Bft) O-NO 68 0 min 0,000 mm 0,0 UV-I 0 W/m 0,6 C 1,0 C 8,0 km/h (2 Bft) 98,26 %
09.01.2016 19:40 1,0 C 97 % 1005,5 hPa 0,0 l/m 3,9 km/h (1 Bft) O-NO 64 0 min 0,000 mm 0,0 UV-I 0 W/m 0,6 C 1,0 C 6,4 km/h (2 Bft) 100,00 %
09.01.2016 19:45 0,9 C 97 % 1005,5 hPa 0,0 l/m 4,9 km/h (1 Bft) O-NO 66 0 min 0,000 mm 0,0 UV-I 0 W/m 0,5 C 0,9 C 6,4 km/h (2 Bft) 98,17 %
09.01.2016 19:50 0,9 C 97 % 1005,5 hPa 0,0 l/m 5,3 km/h (1 Bft) NO 47 0 min 0,000 mm 0,0 UV-I 0 W/m 0,5 C 0,9 C 8,0 km/h (2 Bft) 99,19 %
09.01.2016 19:55 0,9 C 97 % 1005,4 hPa 0,0 l/m 5,4 km/h (1 Bft) O-NO 59 0 min 0,000 mm 0,0 UV-I 0 W/m 0,5 C 0,9 C 8,0 km/h (2 Bft) 98,29 %
09.01.2016 20:00 0,9 C 97 % 1005,5 hPa 0,0 l/m 4,4 km/h (1 Bft) O-NO 57 0 min 0,000 mm 0,0 UV-I 0 W/m 0,5 C 0,9 C 6,4 km/h (2 Bft) 100,00 %
09.01.2016 20:05 0,9 C 97 % 1005,5 hPa 0,0 l/m 5,7 km/h (1 Bft) NO 53 0 min 0,000 mm 0,0 UV-I 0 W/m 0,5 C 0,9 C 8,0 km/h (2 Bft) 99,08 %
09.01.2016 20:10 0,9 C 97 % 1005,5 hPa 0,0 l/m 7,0 km/h (2 Bft) NO 51 0 min 0,000 mm 0,0 UV-I 0 W/m 0,5 C 0,3 C 9,7 km/h (2 Bft) 97,50 %
09.01.2016 20:15 0,9 C 97 % 1005,5 hPa 0,0 l/m 7,2 km/h (2 Bft) NO 55 0 min 0,000 mm 0,0 UV-I 0 W/m 0,5 C 0,1 C 9,7 km/h (2 Bft) 98,35 %
09.01.2016 20:20 0,9 C 97 % 1005,5 hPa 0,0 l/m 6,3 km/h (2 Bft) O-NO 64 0 min 0,000 mm 0,0 UV-I 0 W/m 0,5 C 0,9 C 9,7 km/h (2 Bft) 98,29 %
09.01.2016 20:25 0,9 C 97 % 1005,4 hPa 0,0 l/m 6,0 km/h (2 Bft) NO 52 0 min 0,000 mm 0,0 UV-I 0 W/m 0,5 C 0,9 C 9,7 km/h (2 Bft) 98,31 %
09.01.2016 20:30 0,8 C 97 % 1005,3 hPa 0,0 l/m 6,8 km/h (2 Bft) O-NO 62 0 min 0,000 mm 0,0 UV-I 0 W/m 0,4 C 0,4 C 9,7 km/h (2 Bft) 99,15 %
09.01.2016 20:35 0,8 C 97 % 1005,3 hPa 0,2 l/m 7,6 km/h (2 Bft) O-NO 63 0 min 0,000 mm 0,0 UV-I 0 W/m 0,4 C -0,4 C 12,9 km/h (3 Bft) 96,30 %
09.01.2016 20:40 0,8 C 97 % 1005,2 hPa 0,0 l/m 7,1 km/h (2 Bft) O-NO 69 0 min 0,000 mm 0,0 UV-I 0 W/m 0,4 C 0,1 C 11,3 km/h (2 Bft) 96,61 %
09.01.2016 20:45 0,8 C 97 % 1005,1 hPa 0,0 l/m 6,8 km/h (2 Bft) O-NO 61 0 min 0,000 mm 0,0 UV-I 0 W/m 0,4 C 0,4 C 11,3 km/h (2 Bft) 97,46 %
09.01.2016 20:50 0,8 C 97 % 1005,1 hPa 0,0 l/m 8,3 km/h (2 Bft) O 84 0 min 0,000 mm 0,0 UV-I 0 W/m 0,4 C -1,1 C 12,9 km/h (3 Bft) 96,58 %
09.01.2016 20:55 0,8 C 97 % 1005,1 hPa 0,0 l/m 7,4 km/h (2 Bft) O-NO 73 0 min 0,000 mm 0,0 UV-I 0 W/m 0,4 C -0,2 C 11,3 km/h (2 Bft) 92,37 %
09.01.2016 21:00 0,8 C 97 % 1005,1 hPa 0,0 l/m 7,0 km/h (2 Bft) NO 51 0 min 0,000 mm 0,0 UV-I 0 W/m 0,4 C 0,2 C 14,5 km/h (3 Bft) 96,75 %
09.01.2016 21:05 0,8 C 97 % 1005,1 hPa 0,0 l/m 6,3 km/h (2 Bft) O-NO 61 0 min 0,000 mm 0,0 UV-I 0 W/m 0,4 C 0,8 C 9,7 km/h (2 Bft) 99,08 %
09.01.2016 21:10 0,7 C 97 % 1005,0 hPa 0,0 l/m 6,2 km/h (2 Bft) O-NO 57 0 min 0,000 mm 0,0 UV-I 0 W/m 0,3 C 0,7 C 8,0 km/h (2 Bft) 97,52 %
09.01.2016 21:15 0,7 C 97 % 1005,0 hPa 0,0 l/m 7,4 km/h (2 Bft) NO 49 0 min 0,000 mm 0,0 UV-I 0 W/m 0,3 C -0,3 C 12,9 km/h (3 Bft) 99,15 %
09.01.2016 21:20 0,7 C 97 % 1005,0 hPa 0,0 l/m 6,6 km/h (2 Bft) NO 51 0 min 0,000 mm 0,0 UV-I 0 W/m 0,3 C 0,5 C 9,7 km/h (2 Bft) 100,00 %
09.01.2016 21:25 0,7 C 97 % 1004,9 hPa 0,0 l/m 6,1 km/h (2 Bft) O-NO 66 0 min 0,000 mm 0,0 UV-I 0 W/m 0,3 C 0,7 C 8,0 km/h (2 Bft) 100,00 %
09.01.2016 21:30 0,7 C 97 % 1005,0 hPa 0,0 l/m 5,2 km/h (1 Bft) NO 56 0 min 0,000 mm 0,0 UV-I 0 W/m 0,3 C 0,7 C 8,0 km/h (2 Bft) 99,15 %
09.01.2016 21:35 0,7 C 97 % 1005,0 hPa 0,0 l/m 3,2 km/h (1 Bft) O-NO 57 0 min 0,000 mm 0,0 UV-I 0 W/m 0,3 C 0,7 C 4,8 km/h (1 Bft) 99,15 %
09.01.2016 21:40 0,7 C 97 % 1005,0 hPa 0,0 l/m 4,0 km/h (1 Bft) O-NO 62 0 min 0,000 mm 0,0 UV-I 0 W/m 0,3 C 0,7 C 6,4 km/h (2 Bft) 99,17 %
09.01.2016 21:45 0,7 C 97 % 1005,0 hPa 0,0 l/m 5,0 km/h (1 Bft) O-NO 68 0 min 0,000 mm 0,0 UV-I 0 W/m 0,3 C 0,7 C 8,0 km/h (2 Bft) 97,46 %
09.01.2016 21:50 0,7 C 97 % 1004,9 hPa 0,0 l/m 4,8 km/h (1 Bft) O-NO 65 0 min 0,000 mm 0,0 UV-I 0 W/m 0,3 C 0,7 C 8,0 km/h (2 Bft) 100,00 %
09.01.2016 21:55 0,7 C 97 % 1005,0 hPa 0,0 l/m 5,4 km/h (1 Bft) O-NO 65 0 min 0,000 mm 0,0 UV-I 0 W/m 0,3 C 0,7 C 8,0 km/h (2 Bft) 99,07 %
09.01.2016 22:00 0,7 C 97 % 1004,9 hPa 0,0 l/m 4,5 km/h (1 Bft) O-NO 60 0 min 0,000 mm 0,0 UV-I 0 W/m 0,3 C 0,7 C 8,0 km/h (2 Bft) 98,31 %
09.01.2016 22:05 0,7 C 97 % 1004,9 hPa 0,0 l/m 5,3 km/h (1 Bft) NO 56 0 min 0,000 mm 0,0 UV-I 0 W/m 0,3 C 0,7 C 8,0 km/h (2 Bft) 99,17 %
09.01.2016 22:10 0,7 C 97 % 1004,8 hPa 0,0 l/m 5,8 km/h (2 Bft) O-NO 60 0 min 0,000 mm 0,0 UV-I 0 W/m 0,3 C 0,7 C 11,3 km/h (2 Bft) 100,00 %
09.01.2016 22:15 0,7 C 97 % 1004,7 hPa 0,0 l/m 4,5 km/h (1 Bft) O-NO 62 0 min 0,000 mm 0,0 UV-I 0 W/m 0,3 C 0,7 C 8,0 km/h (2 Bft) 99,18 %
09.01.2016 22:20 0,7 C 97 % 1004,8 hPa 0,2 l/m 4,2 km/h (1 Bft) NO 52 0 min 0,000 mm 0,0 UV-I 0 W/m 0,3 C 0,7 C 8,0 km/h (2 Bft) 99,15 %
09.01.2016 22:25 0,7 C 97 % 1004,7 hPa 0,0 l/m 3,1 km/h (1 Bft) NO 44 0 min 0,000 mm 0,0 UV-I 0 W/m 0,3 C 0,7 C 4,8 km/h (1 Bft) 98,31 %
09.01.2016 22:30 0,6 C 97 % 1004,7 hPa 0,0 l/m 2,7 km/h (1 Bft) N-NO 22 0 min 0,000 mm 0,0 UV-I 0 W/m 0,2 C 0,6 C 6,4 km/h (2 Bft) 99,08 %
09.01.2016 22:35 0,6 C 97 % 1004,6 hPa 0,0 l/m 2,5 km/h (1 Bft) N-NO 26 0 min 0,000 mm 0,0 UV-I 0 W/m 0,2 C 0,6 C 4,8 km/h (1 Bft) 96,58 %
09.01.2016 22:40 0,6 C 97 % 1004,5 hPa 0,0 l/m 3,3 km/h (1 Bft) N-NO 27 0 min 0,000 mm 0,0 UV-I 0 W/m 0,2 C 0,6 C 6,4 km/h (2 Bft) 96,61 %
09.01.2016 22:45 0,6 C 97 % 1004,6 hPa 0,0 l/m 4,7 km/h (1 Bft) NO 42 0 min 0,000 mm 0,0 UV-I 0 W/m 0,2 C 0,6 C 8,0 km/h (2 Bft) 95,87 %
09.01.2016 22:50 0,6 C 97 % 1004,6 hPa 0,0 l/m 4,4 km/h (1 Bft) NO 34 0 min 0,000 mm 0,0 UV-I 0 W/m 0,2 C 0,6 C 6,4 km/h (2 Bft) 95,73 %
09.01.2016 22:55 0,6 C 98 % 1004,5 hPa 0,0 l/m 4,4 km/h (1 Bft) NO 43 0 min 0,000 mm 0,0 UV-I 0 W/m 0,3 C 0,6 C 8,0 km/h (2 Bft) 97,46 %
09.01.2016 23:00 0,6 C 98 % 1004,6 hPa 0,0 l/m 4,6 km/h (1 Bft) NO 53 0 min 0,000 mm 0,0 UV-I 0 W/m 0,3 C 0,6 C 8,0 km/h (2 Bft) 96,58 %
09.01.2016 23:05 0,6 C 98 % 1004,6 hPa 0,0 l/m 4,0 km/h (1 Bft) NO 55 0 min 0,000 mm 0,0 UV-I 0 W/m 0,3 C 0,6 C 8,0 km/h (2 Bft) 97,46 %
09.01.2016 23:10 0,5 C 98 % 1004,6 hPa 0,0 l/m 4,9 km/h (1 Bft) NO 55 0 min 0,000 mm 0,0 UV-I 0 W/m 0,2 C 0,5 C 8,0 km/h (2 Bft) 100,00 %
09.01.2016 23:15 0,6 C 98 % 1004,5 hPa 0,0 l/m 6,3 km/h (2 Bft) NO 53 0 min 0,000 mm 0,0 UV-I 0 W/m 0,3 C 0,6 C 9,7 km/h (2 Bft) 96,58 %
09.01.2016 23:20 0,5 C 98 % 1004,4 hPa 0,0 l/m 5,6 km/h (1 Bft) O-NO 64 0 min 0,000 mm 0,0 UV-I 0 W/m 0,2 C 0,5 C 9,7 km/h (2 Bft) 97,46 %
09.01.2016 23:25 0,5 C 98 % 1004,4 hPa 0,0 l/m 6,8 km/h (2 Bft) O-NO 63 0 min 0,000 mm 0,0 UV-I 0 W/m 0,2 C 0,1 C 9,7 km/h (2 Bft) 99,15 %
09.01.2016 23:30 0,4 C 98 % 1004,3 hPa 0,0 l/m 5,4 km/h (1 Bft) O-NO 61 0 min 0,000 mm 0,0 UV-I 0 W/m 0,1 C 0,4 C 9,7 km/h (2 Bft) 100,00 %
09.01.2016 23:35 0,5 C 98 % 1004,4 hPa 0,0 l/m 4,0 km/h (1 Bft) NO 48 0 min 0,000 mm 0,0 UV-I 0 W/m 0,2 C 0,5 C 6,4 km/h (2 Bft) 97,46 %
09.01.2016 23:40 0,5 C 98 % 1004,3 hPa 0,0 l/m 3,8 km/h (1 Bft) O-NO 63 0 min 0,000 mm 0,0 UV-I 0 W/m 0,2 C 0,5 C 6,4 km/h (2 Bft) 99,15 %
09.01.2016 23:45 0,5 C 98 % 1004,3 hPa 0,0 l/m 3,6 km/h (1 Bft) NO 56 0 min 0,000 mm 0,0 UV-I 0 W/m 0,2 C 0,5 C 6,4 km/h (2 Bft) 99,15 %
09.01.2016 23:50 0,4 C 98 % 1004,2 hPa 0,0 l/m 3,7 km/h (1 Bft) NO 49 0 min 0,000 mm 0,0 UV-I 0 W/m 0,1 C 0,4 C 6,4 km/h (2 Bft) 98,31 %
09.01.2016 23:55 0,5 C 98 % 1004,2 hPa 0,0 l/m 3,3 km/h (1 Bft) O-NO 65 0 min 0,000 mm 0,0 UV-I 0 W/m 0,2 C 0,5 C 6,4 km/h (2 Bft) 98,33 %
_ Min-Zeit 23:30 14:25 23:50 - 00:15 - - - - - - 00:00 20:50 05:20 20:55
Minimum _ 0,4 C 89 % 1004,2 hPa - 0,0 km/h (0 Bft) - - - - - - -0,3 C -1,1 C 0,0 km/h (0 Bft) 92,37 %
_ Max-Zeit 13:50 22:55 03:00 03:05 20:50 - - 13:30 11:00 11:45 10:55 10:55 13:50 21:00 00:50
Maximum _ 2,6 C 98 % 1006,4 hPa 0,2 l/m 8,3 km/h
O (2 Bft)
- - 10 min 0,077 mm 0,7 UV-I 321 W/m 1,4 C 2,6 C 14,5 km/h
O-NO (3 Bft)
100,00 %
Durchschnitt _ 1,3 C 95 % 1005,5 hPa #2,6 l/m 3,4 km/h (1 Bft) O-NO - #1:25 h #0,305 mm 0,5 UV-I 104 W/m 0,6 C 1,3 C 6,2 km/h (2 Bft) 98,53 %